FREGAT R/B, 41551

Orbit data source: Space-Track

FREGAT R/B, 41551 is space debris originally from a launch on Tue, 24 May 2016 UTC launched from the French Guiana (FRGUI). Debris objects in space refer to the collection of defunct objects orbiting the Earth. Examples of debris include non-operational satellites, rocket bodies, and fragments generated from explosions, collisions, or faulty payload assembly.

Loading next visibility...
FREGAT R/B details
Identifier
41551, 2016-030C
Orbit
Active
Last TLE update3 days ago
Origin
Flag of CISLavochkin (CIS)
ManufacturerLavochkin
MissionSpacecraft
Bus & MotorFREGAT, Unknown motor
Mass1,050 kg wet, 1,050 kg dry
Launch date (UTC)
2016-05-24 (9 years ago)
Launch vehicleUnknown
Launch site
French Guiana (FRGUI)
Object type
Payload
Rocket body
Debris
Shape & HBRIrr, 3.3 m
Radar Cross Section11.055 m², Large (>1 m²)

Expand to show TLE details & history

TLE from 3 days ago
0 FREGAT R/B
1 41551U 16030C   25012.23377729  .00000062  00000-0  00000-0 0  9994
2 41551  55.1774 238.9246 0020405 229.7669 130.1454  1.67598053 52899
Epoch: 2025-01-12T05:36Z
Definitive object data (Epoch: 2025-01-12T05:36:38.357Z)
Latitude
Longitude42.81342°
Altitude23,599.593 km
Speed3.644 km/s
True Right ascension15h 55m 46s
True Declination0° 00' 00"
Sunlit
Object was in daylight at TLE epoch
Visualization TLE readout
Latitude-53.0684°
Longitude-69.62518°
Altitude23,524.712 km
Speed3.655 km/s
Apparent Right ascension07h 36m 06s
Apparent Declination-53° 41' 40"
Sunlit
Object is in daylight
Visualization observer readout
Local Sidereal Time16:06:16
Azimuth230.53° WSW
Elevation-52.543°
Doppler factor1
Orbital elements
Apogee altitude23,620.936 km
Perigee altitude23,498.759 km
Semi-major axis29,937.985 km
Eccentricity0.0020405
Inclination55.1774°
RAAN238.9246°
Arg. of periapsis229.7669°
True anomaly130.32384°
Mean anomaly130.1454°
Eccentric anomaly130.23465°
Mean motion0.419 °/min
BSTARUnknown
Orbital period859.2 mins
Loading maneuver chart data...
Loading historical data...
Loading historical data...
Loading historical data...
Loading historical data...
Loading historical data...
Loading historical data...
Loading historical data...
Other satellites on launch #30 in the year 2016 (2016-05-24 UTC)

FREGAT R/B Visibility forecast

Observer location: undefined°, undefined

Span
Click to sort rows by Start time (UTC) header in descending order
Start Az.
Max El. time (UTC)
Max El. Az.
Max El.
End time (UTC)
End Az.
497 mins2025-01-15 19:45:24.968Z256.818° W2025-01-16 00:37:24.968Z72.552° E44.973°2025-01-16 04:02:24.968Z171.867° S
128 mins2025-01-16 11:03:24.968Z76.16° E2025-01-16 12:07:24.968Z55.035° ENE15.522°2025-01-16 13:11:24.968Z36.192° NE
|